Location: Oregon Trail
(41.1872°N, 102.0741°W)
Time: 12:28:48
(UTC+00:00)

Sich 1 - Visible Passes

Search period start: 18 February 2020 00:00
Search period end: 28 February 2020 00:00
Orbit: 593 x 626 km, 82.5° (Epoch: 17 February)

Date Brightness Start Highest point End Pass type
(mag) Time Alt. Az. Time Alt. Az. Time Alt. Az.
18 Feb 2.9 01:33:16 10° S 01:37:35 85° E 01:41:53 10° N visible
18 Feb 5.7 11:41:29 10° NNE 11:44:41 20° ENE 11:47:54 10° ESE visible
19 Feb 3.8 01:47:53 10° SSW 01:52:05 53° W 01:56:17 10° N visible
19 Feb 4.7 11:55:24 10° N 11:59:20 34° ENE 12:03:15 10° SE visible
20 Feb 5.0 02:02:53 10° SW 02:06:40 30° WNW 02:10:27 10° NNW visible
20 Feb 3.5 12:09:38 10° N 12:13:54 61° E 12:18:09 10° SSE visible
21 Feb 5.9 02:18:24 10° WSW 02:21:19 18° WNW 02:24:16 10° NNW visible
21 Feb 2.9 12:24:05 10° NNW 12:28:23 74° W 12:32:41 10° S visible
22 Feb 3.0 00:53:40 10° S 00:57:56 67° E 01:02:10 10° NNE visible
22 Feb 6.5 02:35:23 10° WNW 02:36:04 10° WNW 02:36:45 10° WNW visible
22 Feb 5.9 11:02:10 10° NNE 11:04:56 16° ENE 11:07:43 10° ESE visible
22 Feb 3.4 12:38:46 10° NNW 12:42:48 40° W 12:46:51 10° SSW visible
23 Feb 3.4 01:08:08 10° SSW 01:12:23 68° W 01:16:40 10° N visible
23 Feb 5.1 11:15:54 10° NNE 11:19:37 27° ENE 11:23:19 10° SE visible
23 Feb 4.1 12:53:43 10° NW 12:57:08 23° W 13:00:34 10° SW visible
24 Feb 4.7 01:22:58 10° SW 01:26:56 37° WNW 01:30:56 10° N visible
24 Feb 4.0 11:30:02 10° N 11:34:12 48° E 11:38:23 10° SSE visible
25 Feb 5.7 01:38:14 10° SW 01:41:34 22° WNW 01:44:55 10° NNW visible
25 Feb 2.9 11:44:23 10° N 11:48:43 87° ENE 11:53:04 10° S visible
26 Feb 6.2 01:54:17 10° W 01:56:17 13° WNW 01:58:17 10° NW visible
26 Feb 6.1 10:23:02 10° NE 10:25:11 13° ENE 10:27:19 10° E visible
26 Feb 3.1 11:58:58 10° NNW 12:03:10 52° W 12:07:22 10° S visible
27 Feb 5.4 10:36:27 10° NNE 10:39:53 22° ENE 10:43:19 10° SE visible
27 Feb 3.8 12:13:48 10° NNW 12:17:32 29° W 12:21:17 10° SSW visible
